This demonstration page uses our WeatherBlox Daily Observations layout. Learn more.

39.92423, -83.80882

Hourly Observations for May 16, 2019

Temp ( °F °C ) Dew Point ( °F °C ) Humidity (%) Winds ( mph kmh ) Pressure ( in mb ) Visibility ( mi km ) Precip ( " mm )
12:56 am 00:56 Clear 55 12.8 50 10 83 83 SW 6 9 29.98 1015 10 16.0934 0 0
1:56 am 01:56 Clear 54 12.2 50 10 87 87 SSW 6 9 29.97 1015 10 16.0934 0 0
2:56 am 02:56 Clear 54 12.2 50 10 87 87 SW 9 15 29.97 1015 10 16.0934 0 0
3:56 am 03:56 Clear 53 11.7 49 9.4 86 86 SW 7 11 29.97 1015 10 16.0934 0 0
4:56 am 04:56 Clear 51 10.6 49 9.4 92 92 SW 6 9 29.98 1015 10 16.0934 0 0
5:56 am 05:56 Clear 51 10.6 49 9.4 92 92 SW 7 11 29.99 1016 10 16.0934 0 0
6:56 am 06:56 Sunny 50 10 49 9.4 96 96 SW 6 9 30 1016 10 16.0934 0 0
7:56 am 07:56 Sunny 55 12.8 52 11.1 90 90 WSW 6 9 30.01 1016 10 16.0934 0 0
8:56 am 08:56 Sunny 61 16.1 56 13.3 84 84 WSW 5 7 30.01 1016 10 16.0934 0 0
9:56 am 09:56 Sunny 65 18.3 58 14.4 78 78 WSW 9 15 29.99 1016 10 16.0934 0 0
10:56 am 10:56 Sunny 69 20.6 57 13.9 66 66 WSW 12 19 29.98 1015 10 16.0934 0 0
11:56 am 11:56 Mostly Sunny 71 21.7 56 13.3 59 59 WSW 12 19 29.97 1015 10 16.0934 0 0
12:56 pm 12:56 Mostly Sunny 73 22.8 53 11.7 50 50 S 8 13 29.96 1015 10 16.0934 0 0
1:56 pm 13:56 Mostly Sunny 74 23.3 53 11.7 48 48 SSW 14 22 29.94 1014 10 16.0934 0 0
2:56 pm 14:56 Sunny 74 23.3 52 11.1 46 46 SSW 12 19 29.91 1013 10 16.0934 0 0
3:56 pm 15:56 Mostly Sunny 75 23.9 53 11.7 46 46 SW 17 28 29.9 1013 10 16.0934 0 0
4:56 pm 16:56 Sunny 74 23.3 55 12.8 52 52 SSW 14 22 29.88 1012 10 16.0934 0 0
5:56 pm 17:56 Sunny 74 23.3 56 13.3 54 54 SW 15 24 29.86 1011 10 16.0934 0 0
6:56 pm 18:56 Sunny 72 22.2 57 13.9 59 59 SW 10 17 29.85 1011 10 16.0934 0 0
7:56 pm 19:56 Sunny 71 21.7 57 13.9 61 61 SSW 12 19 29.84 1010 10 16.0934 0 0
8:56 pm 20:56 Clear 69 20.6 58 14.4 68 68 SW 13 20 29.81 1010 10 16.0934 0 0
9:56 pm 21:56 Clear 66 18.9 59 15 78 78 SSW 5 7 29.81 1010 10 16.0934 0 0
10:56 pm 22:56 Partly Cloudy 63 17.2 59 15 87 87 SW 7 11 29.8 1009 10 16.0934 0 0
11:16 pm 23:16 Mostly Cloudy with Nearby Thunderstorms 64 18 61 16 88 88 WSW 9 15 29.8 1009 10 16.0934 0 0.0254
11:56 pm 23:56 Cloudy with Light Thunderstorms 63 17.2 61 16.1 93 93 S 6 9 29.8 1009 10 16.0934 0.02 0.508

Powered by AerisWeather